www.pogodaiklimat.ru
ПОГОДА в Генерал-Сантосе
Время
(UTC), дата
00 9.10
03 9.10
06 9.10
09 9.10
12 9.10
15 9.10
18 9.10
21 9.10
00 10.10
03 10.10
06 10.10
09 10.10
12 10.10
15 10.10
18 10.10
21 10.10
00 11.10
03 11.10
06 11.10
09 11.10
12 11.10
15 11.10
18 11.10
21 11.10
00 12.10
03 12.10
06 12.10
09 12.10
12 12.10
15 12.10
18 12.10
21 12.10
00 13.10
03 13.10
06 13.10
09 13.10
12 13.10
15 13.10
18 13.10
21 13.10
00 14.10
03 14.10
06 14.10
09 14.10
12 14.10
15 14.10
18 14.10
21 14.10
00 15.10
03 15.10
06 15.10
09 15.10
12 15.10
15 15.10
Ветер
(напр.,м/с)
Видим. Явления Облачность Т
(С)
Тd
(С)
f
(%)
Тe
(С)
Тes
(С)
Комфортность P
(гПа)
Po
(гПа)
Тmin
(С)
Tmax
(С)
R
(мм)
R24
(мм)
S
(см)
ЮВ 1 18 км мгла 3/3 600 м
[Cu hum Ci fib]
+28.1 +23.3 75 +38 +43 очень
душно
1010.9 996.0 +21.1 2
ЮВ 2 18 км мгла {туман} 1/1 600 м
[Cu med, cong Ci fib]
+30.8 +20.7 55 +38 +56 опасность
солнечного
удара
1009.6 994.8
ЮВ 3 18 км мгла {туман} 3/3 600 м
[Cu med, cong Ci fib]
+32.8 +22.3 54 +42 +50 опасность
перегрева
1006.6 991.8
штиль 0 20 км мгла {туман} 4/1 600 м
[Cu med, cong Ac As Ci fib]
+30.2 +24.0 69 +42 +42 опасность
перегрева
1006.8 992.0
штиль 0 20 км гроза без осадков {ливн. осадки} 9/3 540 м
[Cb calv Ac As]
+25.5 +23.9 91 +35 +35 очень
душно
1010.1 995.2 +33.1 2
СЗ 1 20 км 4/3 600 м
[Cu med, cong Ac As]
+25.3 +23.4 89 +34 +34 очень
душно
1011.1 996.2
З 1 20 км 6/1 540 м
[Cu med, cong Ac As]
+24.2 +22.3 89 +31 +31 очень
душно
1009.8 995.0
СЗ 1 20 км 6/1 540 м
[Cu med, cong Ac As]
+23.6 +22.1 91 +30 +30 очень
душно
1009.6 994.8
штиль 0 15 км мгла {туман} 9/1 540 м
[Cu med, cong Cs]
+26.8 +23.4 82 +36 +43 очень
душно
1011.2 996.3 +22.5 2 2
ЮВ 2 15 км мгла {туман} 9/3 600 м
[Cu med, cong Ac As Cs]
+30.4 +24.9 72 +43 +51 опасность
перегрева
1010.1 995.3
ЮВ 4 18 км мгла {туман} 5/3 600 м
[Cu med, cong Ac As Cs]
+30.6 +24.8 71 +43 +49 опасность
перегрева
1007.5 992.7
ЮВ 1 18 км мгла {туман} 8/1 600 м
[Cu hum Ac As Cs]
+29.5 +23.5 70 +40 +40 очень
душно
1008.5 993.6
С 1 20 км зарница {ливн. осадки, туман} 9/3 540 м
[Cb calv Ac As]
+25.4 +20.9 76 +32 +32 очень
душно
1010.6 995.7 +31.2 1
штиль 0 20 км 1/1 540 м
[Cu med, cong Ci fib]
+24.0 +20.2 79 +30 +30 очень
душно
1010.9 996.0
штиль 0 20 км 5/1 540 м
[Cu med, cong Ac As]
+23.2 +21.2 89 +31 +31 очень
душно
1009.2 994.3
СЗ 1 20 км 9/1 540 м
[Cu hum Ac As]
+22.8 +20.2 85 +29 +29 очень
душно
1010.2 995.3
СВ 1 18 км мгла {туман} 8/1 540 м
[Cu hum Cs]
+27.2 +23.6 81 +37 +43 очень
душно
1011.4 996.5 +21.9 1
ЮВ 3 18 км мгла {туман} 9/1 540 м
[Cu hum Cs]
+30.6 +23.4 65 +41 +53 опасность
перегрева
1010.0 995.1
Ю 4 18 км мгла {туман} 8/1 540 м
[Cu med, cong Cs]
+31.9 +22.2 57 +41 +48 опасность
перегрева
1007.1 992.3
СЗ 1 18 км мгла {туман} 9/1 540 м
[Cu med, cong Ac As]
+28.0 +21.8 69 +36 +36 очень
душно
1007.5 992.7
штиль 0 20 км {туман} 6/1 540 м
[Cu med, cong Ac As]
+26.8 +21.9 75 +35 +35 очень
душно
1010.2 995.3 +32.4
СЗ 1 20 км 9/1 540 м
[Cu hum Cs]
+25.1 +22.2 84 +33 +33 очень
душно
1010.5 995.6
СЗ 1 20 км 9/1 540 м
[Cu hum Cs]
+25.1 +22.2 84 +33 +33 очень
душно
1010.5 995.6
З 1 20 км 9/1 540 м
[Cu hum Ac As]
+24.0 +21.2 84 +30 +30 очень
душно
1009.4 994.5
штиль 0 15 км мгла {туман} 9/1 540 м
[Cu hum Ac As]
+27.0 +22.9 78 +36 +39 очень
душно
1010.8 995.9 +23.0
ЮВ 3 15 км мгла {туман} 3/3 540 м
[Cu med, cong Ci fib]
+31.2 +22.8 61 +41 +53 опасность
перегрева
1009.0 994.3
ЮЗ 5 20 км осадки на расстоянии {туман} 8/3 600 м
[Cb calv Ac As]
+30.5 +23.1 65 +41 +43 опасность
перегрева
1007.0 992.2
Ю 2 20 км мгла {туман} 4/1 540 м
[Cu med, cong Ci fib]
+29.0 +23.7 73 +40 +40 очень
душно
1006.8 991.9
С 4 18 км гроза, ливневой дождь 10/3 540 м
[Cb calv As trans]
+24.0 +21.9 88 +31 +31 очень
душно
1010.2 995.2 +31.4 0.0
СЗ 2 18 км зарница {ливн. осадки} 8/1 540 м
[Cb calv Ac As Ci fib]
+24.2 +22.3 89 +31 +31 очень
душно
1010.6 995.6 0.0
СЗ 1 18 км {ливн. осадки} 9/1 540 м
[Cu hum Ac As]
+23.7 +22.0 90 +31 +31 очень
душно
1009.4 994.5 0.0
ЮЗ 1 18 км зарница 9/1 540 м
[Cb calv Ac As]
+23.3 +21.5 90 +31 +31 очень
душно
1009.5 994.6
штиль 0 18 км мгла {туман} 1/1 540 м
[Cu hum Ci fib]
+28.6 +23.6 74 +39 +47 очень
душно
1011.3 996.4 +22.5 0.0
ЮВ 3 20 км мгла {туман} 3/3 540 м
[Cu med, cong Ci fib]
+32.2 +23.2 59 +43 +54 опасность
перегрева
1009.6 994.7
Ю 5 20 км мгла {туман} 9/1 540 м
[Cu med, cong Ac As Ci fib]
+31.0 +21.3 56 +39 +42 очень
душно
1008.1 993.3
Ю 3 20 км мгла {туман} 9/1 540 м
[Cu med, cong Ac As]
+28.3 +23.0 73 +38 +38 очень
душно
1008.7 993.8
штиль 0 20 км мгла {туман} 1/1 540 м
[Cu hum Ci fib]
+25.6 +23.0 86 +34 +34 очень
душно
1010.8 995.9 +32.3
штиль 0 20 км 8/1 540 м
[Cu hum Ac As]
+25.2 +22.9 87 +33 +33 очень
душно
1019.8 996.0
штиль 0 20 км 6/1 540 м
[Cu hum Ac As Ci fib]
+24.0 +22.2 90 +31 +31 очень
душно
1010.0 995.1
В 1 20 км 8/1 540 м
[Cu hum Cs]
+23.0 +21.6 92 +31 +31 очень
душно
1009.7 994.8
В 1 20 км мгла {туман} 4/1 540 м
[Cu hum Ci fib]
+28.3 +23.9 77 +39 +46 очень
душно
1011.9 997.0 +22.2
ЮВ 3 20 км мгла {туман} 3/3 600 м
[Cu med, cong Ci fib]
+31.8 +22.6 58 +41 +53 опасность
перегрева
1010.5 995.7
Ю 5 20 км мгла {туман} 9/3 600 м
[Cb calv Ac As Cs]
+29.6 +23.9 71 +41 +44 опасность
перегрева
1008.9 994.0
Ю 2 20 км мгла {гроза, туман} 9/1 540 м
[Cu med, cong Ac As Cs]
+28.4 +23.3 74 +38 +39 очень
душно
1009.2 994.3
СЗ 1 20 км зарница {гроза, туман} 6/3 600 м
[Cu med, cong Ac As]
+26.4 +23.8 86 +36 +36 очень
душно
1011.6 996.7 +32.2
С 1 20 км 5/1 540 м
[Cu med, cong Ac As]
+24.9 +22.8 88 +33 +33 очень
душно
1012.2 997.3
С 1 20 км 9/1 540 м
[Cu med, cong Ac As]
+23.4 +21.9 91 +32 +32 очень
душно
1010.5 995.6
СЗ 1 20 км 10/1 540 м
[Cu med, cong Ac As]
+23.2 +21.7 91 +31 +31 очень
душно
1010.4 995.5
штиль 0 15 км мгла {туман} 10/1 540 м
[Cu med, cong Ac As]
+27.0 +22.1 75 +35 +38 очень
душно
1012.5 997.6 +22.5
В 2 15 км мгла {туман} 10/1 540 м
[Cu med, cong Cs]
+30.2 +22.3 63 +39 +54 опасность
солнечного
удара
1011.0 996.1
СВ 2 18 км мгла {туман} 4/1 540 м
[Cu med, cong Ac As Ci fib]
+32.2 +21.6 54 +41 +51 опасность
перегрева
1007.9 993.1
Ю 2 18 км мгла {туман} 3/3 540 м
[Cu med, cong Ci fib]
+29.7 +22.5 65 +39 +39 очень
душно
1007.5 992.6
СЗ 1 20 км {туман} 1/1 540 м
[Cu hum Ci fib]
+25.4 +22.5 84 +33 +33 очень
душно
1010.0 995.1 +32.2
СЗ 1 20 км 1/1 600 м
[Cu hum]
+25.3 +23.3 89 +34 +34 очень
душно
1010.9 996.0
Местоположение метеостанции Генерал-Сантос (Филиппины): широта 6.12 долгота 125.18 высота над уровнем моря 15 м.
В архиве по умолчанию представлена погода в Генерал-Сантосе за последнюю неделю. Архивные данные за месяц целиком и за предыдущие месяцы, начиная с января 2011 года, Вы можете получить, выбрав интересующий диапазон дат из раскрывающегося списка и нажав кнопку "Найти!".
*Определитесь, кто Вы:
Внимание! Время в таблицах - всемирное. Для получения местного времени необходимо прибавить поправку, которая равна 8 ч.
Смотрите также архив погоды в соседних городах и на ближайших метеорологических станциях:
Партнеры нашего сайта:      
Пояснения к столбцам:
  • Ветер - указаны скорость ветра в м/с - средняя за 10 мин, порывы в срок и между сроками (в фигурных скобках) и направление, откуда дует ветер: С - северный,
  • СВ - северо-восточный, В - восточный, ЮВ - юго-восточный, Ю - южный, ЮЗ - юго-западный, З - западный, СЗ - северо-западный.
  • Видимость - горизонтальная дальность видимости в метрах или километрах. При видимости от 1 до 10 км при отсутствии осадков обычно наблюдается дымка, при ухудшении видимости до 1 км и менее - туман. В сухую погоду видимость может ухудшаться дымом, пылью или мглою.
  • Явления - указаны атмосферные явления, наблюдавшиеся в срок или в последний час перед сроком; фигурными скобками обозначены явления, наблюдавшиеся между сроками (за 1-3 часа до срока); квадратными скобками обозначены град или гололедные отложения с указанием их диаметра в мм.
  • Облачность - указаны через наклонную черту общая и нижняя облачность в баллах и высота нижней границы облаков в метрах; квадратными скобками обозначены формы облаков: Ci - перистые, Cs - перисто-слоистые, Cc - перисто-кучевые, Ac - высококучевые, As - высокослоистые, Sc - слоисто-кучевые, Ns - слоисто-дождевые, Cu - кучевые, Cb - кучево-дождевые. Подробнее классификацию облаков см. в Атласе облаков (PDF).
  • T - Температура воздуха - температура, измеренная на высоте 2 м над землей.
  • Td - Температура точки росы - температура, при понижении до которой содержащийся в воздухе водяной пар достигнет насыщения.
  • f - Относительная влажность воздуха - влажноcть воздуха, измеренная на высоте 2 м над землей.
  • Te - Эффективная температура - температура, которую ощущает одетый по сезону человек в тени. Характеристика душности погоды. При расчете учитывается влияние влажности воздуха и скорости ветра на теплоощущения человека.
  • Tes - Эффективная температура на солнце - температура, которую ощущает человек, с поправкой на солнечный нагрев. Характеристика знойности погоды. Зависит от высоты солнца над горизонтом, облачности и скорости ветра. Ночью, в пасмурную погоду, а также при ветре 12 м/с и более поправка равна нулю.
  • P - Атмосферное давление - приведенное к уровню моря атмосферное давление.
  • Po - Атмосферное давление - измеренное на уровне метеостанции атмосферное давление.
  • Tmin - Минимальная температура - минимум температуры воздуха на высоте 2 м над землей.
  • Tmax - Максимальная температура - максимум температуры воздуха на высоте 2 м над землей.
  • R - Количество осадков - Количество выпавших осадков за период времени, мм. При наведении курсора мыши на число - период времени, за который выпало указанное количество осадков.
  • R24 - Количество осадков - Количество выпавших осадков за 24 часа, мм.
  • S - Снежный покров - Высота снежного покрова, см. При наведении курсора мыши на число - состояние снежного покрова и степень покрытия местности в баллах.